Regional Weather Roundup
Issued by NWS Goodland, KS

Home | Current Version | Previous Version | Text Only | Print | Product List | Glossary Off
Versions: 1 2 3 4 5 6 7 8 9 10 11 12 13 14 15 16 17 18 19 20 21 22 23 24 25 26 27 28 29 30 31 32 33 34 35 36 37 38 39 40 41 42 43 44 45 46 47 48 49 50

783
ASUS43 KGLD 022059
RWRGLD

GOODLAND FORECAST AREA HOURLY WEATHER ROUNDUP
NATIONAL WEATHER SERVICE GOODLAND KS
200 PM MST FRI DEC 02 2016

...OFFICIAL OBSERVATIONS...

CITY           SKY/WX    TMP DP  RH WIND       PRES   REMARKS
GOODLAND KS    PTSUNNY   43  14  31 VRB3      30.21F
HILL CITY KS   CLOUDY    46  19  34 CALM      30.26R
IMPERIAL NEB   CLOUDY    41  23  48 CALM      30.23R
MCCOOK NEB     CLOUDY    42  23  46 CALM      30.26R
AKRON CO       CLOUDY    37  18  46 SE7       30.19F
BURLINGTON CO  CLOUDY    41  14  33 VRB3      30.20F
LIMON CO       CLOUDY    34  17  50 S8        30.16F
$$

...UNOFFICIAL OBSERVATIONS...

CITY           SKY/WX    TMP DP  RH WIND       PRES   REMARKS
COLBY KS       MOSUNNY   46  19  34 NW5       30.24S
LENORA KS        N/A     46  32  58 MISG        N/A
NORTON KS      PTSUNNY   43  16  33 CALM      30.25R
SHARON SPRINGS   N/A     42  17  35 CALM        N/A
TRENTON NEB      N/A     41  32  70 CALM        N/A
KIT CARSON CO    N/A     38  17  42 MISG        N/A
YUMA CO        FAIR      37  18  44 E5        30.20F
$$




USA.gov is the U.S. government's official web portal to all federal, state and local government web resources and services.